SCP
0 0 0 1 1 0 0 0 0 0 0 0 1 1 1 1 1 2 2 3 2 3 4 6 8 9 9 7 5 4 3 4 4 3 2 2 2 2 1 1 1 2 2 3
0 0 0 0 0 0 0 0 0 0 0 0 1 2 2 1 1 2 2 3 3 4 6 7 7 8 8 6 5 4 4 4 4 3 2 2 2 2 1 2 2 2 2 2
0 0 0 0 0 0 0 0 0 0 0 1 1 3 3 2 1 2 2 3 3 4 6 6 5 5 5 4 4 4 4 4 3 3 2 2 2 2 2 2 3 3 2 2
0 0 0 0 0 0 0 0 0 0 0 0 1 2 3 2 2 2 2 3 3 4 5 5 4 3 3 3 3 4 4 3 3 2 2 3 3 2 2 3 3 2 2 2
0 0 0 0 0 0 0 0 0 0 0 0 1 2 2 2 2 2 3 3 4 4 5 5 4 3 2 2 3 3 3 3 3 2 2 2 3 3 3 3 3 2 2 2
0 0 0 0 0 0 0 0 0 0 0 0 1 1 2 2 2 3 4 3 3 4 5 5 4 4 3 3 3 3 3 3 3 2 2 2 2 2 2 2 2 2 3 3
0 0 0 1 0 0 0 0 0 0 0 0 1 1 1 2 3 4 4 3 3 5 5 5 4 4 4 4 4 4 3 3 3 3 2 2 2 3 3 2 2 2 3 4
0 0 0 0 0 0 0 0 0 0 0 0 0 1 1 1 2 4 4 4 4 5 5 4 4 3 4 5 5 5 4 4 4 3 3 3 3 3 3 3 3 3 3 3
0 0 0 0 0 0 0 0 0 0 0 0 0 1 1 1 2 4 5 5 5 5 4 4 3 3 3 4 5 6 6 5 5 4 4 3 4 4 4 4 3 3 3 3
0 0 0 0 0 0 0 0 0 0 0 0 0 1 1 2 2 4 6 6 6 5 4 3 3 3 3 3 5 6 7 6 6 5 4 4 4 4 5 4 4 4 4 4
0 0 0 0 0 0 0 0 0 0 0 0 0 1 2 2 3 4 6 6 6 5 4 4 4 4 4 4 5 6 7 7 7 6 5 4 4 4 4 4 5 6 6 6
0 0 0 0 0 0 0 0 0 0 0 0 0 1 2 3 4 4 5 6 6 5 4 4 4 4 5 6 6 6 6 7 8 7 6 5 4 4 5 6 7 7 7 6
0 0 0 0 0 0 0 0 0 0 0 0 0 1 3 4 4 4 5 5 5 4 4 5 5 5 6 8 9 9 9 8 8 7 6 6 6 7 8 8 8 8 7 7
1 0 0 0 0 0 0 0 0 0 0 0 1 2 3 4 4 4 4 5 5 4 4 5 5 5 6 7 10 14 14 11 10 9 8 8 9 10 10 8 7 6 6 5
1 1 0 0 0 0 0 0 0 1 1 0 1 2 3 4 5 6 5 5 5 5 4 5 6 7 7 7 9 12 14 13 12 12 12 11 11 11 10 8 6 4 4 4
1 1 0 0 0 1 1 1 1 1 1 1 1 2 4 5 6 7 6 5 5 5 5 6 7 8 9 8 8 9 11 13 14 15 15 14 13 11 10 8 6 4 3 3
1 1 1 0 1 1 1 1 1 1 1 1 2 3 4 4 5 6 5 4 4 5 6 8 10 11 11 10 10 11 14 17 19 18 16 13 12 11 10 8 6 4 4 4
1 1 1 1 1 1 1 1 1 1 1 1 2 3 4 3 4 4 5 4 4 5 7 9 12 13 12 11 11 14 19 23 24 20 14 11 11 12 10 8 7 6 5 5
1 1 1 1 1 1 1 1 1 1 1 1 2 3 3 3 4 5 6 5 5 5 7 10 13 13 12 10 13 18 23 25 23 18 13 11 11 12 10 9 8 7 6 6
1 1 1 1 0 0 1 1 1 1 1 2 2 3 3 4 6 7 7 6 6 6 7 9 11 12 10 10 14 21 24 23 19 15 12 11 11 11 9 8 7 7 6 6
1 2 1 1 0 1 1 1 1 1 2 3 3 4 5 6 8 9 8 6 5 6 7 9 10 10 10 11 16 21 21 18 15 13 12 12 11 10 8 6 5 5 5 5
2 2 1 1 1 1 2 2 2 3 4 4 5 6 6 6 8 8 7 5 4 5 6 7 7 9 10 12 15 17 16 14 12 11 12 13 11 9 6 5 4 4 4 4
1 1 1 1 2 2 3 4 3 3 4 4 5 6 6 5 6 6 6 6 6 6 6 6 6 7 9 10 12 12 12 11 10 10 13 13 11 7 5 4 4 4 4 3
1 2 2 2 3 3 4 4 4 3 4 4 5 5 5 6 6 7 9 10 10 9 7 5 6 7 8 9 9 9 9 9 9 10 12 12 9 6 4 3 3 3 3 3
2 2 3 3 3 3 3 4 5 5 5 6 6 6 7 7 7 8 11 12 11 9 7 5 6 7 8 9 8 8 7 7 7 9 9 9 7 5 3 3 3 2 2 2
2 2 2 3 3 3 2 3 6 8 8 7 6 7 7 6 7 8 9 10 9 7 6 5 5 6 8 9 8 7 6 6 6 7 8 7 5 4 3 2 2 2 1 1
Wind_Speed
13 12 10 9 10 12 11 8 5 3 4 4 3 3 6 7 8 9 9 9 8 8 9 9 8 8 8 7 7 6 5 4 3 2 2 2 2 2 2 2 3 2 2 2
12 13 12 11 11 12 12 9 7 4 5 5 4 3 5 8 9 8 9 9 10 10 11 11 9 8 8 7 7 6 5 4 3 2 2 1 2 2 3 2 2 3 2 2
15 11 10 11 10 10 11 9 8 8 7 7 5 4 5 6 6 9 9 9 10 11 12 11 10 8 8 7 7 5 4 4 3 3 2 2 2 2 2 2 2 2 2 2
13 13 10 11 11 11 10 9 10 10 9 6 7 5 6 6 7 8 10 10 9 11 11 11 10 9 8 8 7 6 5 4 3 3 2 2 3 2 2 2 2 2 1 2
12 13 12 12 11 10 9 9 11 12 9 9 8 5 4 6 7 9 10 11 10 11 11 11 10 10 9 9 8 7 6 5 4 3 2 2 2 1 2 2 2 2 1 1
15 14 12 11 11 10 10 11 13 12 7 9 9 6 3 6 7 8 11 11 11 11 12 11 11 10 8 9 8 8 7 5 4 3 3 2 2 1 2 2 1 1 1 1
16 15 13 11 11 10 10 10 8 6 5 7 7 6 3 4 6 8 11 11 12 11 11 11 11 10 9 8 8 8 7 6 5 4 3 2 1 1 2 1 1 1 1 2
12 11 11 10 11 8 9 10 8 6 6 6 6 4 3 3 5 7 10 11 11 11 10 10 10 10 9 9 8 8 8 6 5 4 3 2 2 1 1 1 1 2 2 2
9 9 11 10 9 11 10 9 8 8 10 7 5 4 4 6 7 8 10 10 11 10 10 10 10 9 9 9 8 9 8 6 5 5 4 3 2 2 1 1 2 2 2 1
10 8 10 9 10 12 11 9 6 6 6 8 6 4 3 5 5 6 9 10 9 8 9 9 8 7 7 7 8 9 8 7 6 5 3 4 3 2 2 2 2 2 2 2
10 9 11 11 11 10 10 11 9 6 6 7 5 3 2 3 3 5 8 10 9 9 9 9 8 8 7 6 7 8 8 7 6 5 3 3 3 3 2 2 2 2 2 1
7 8 9 10 10 11 12 10 10 8 7 8 7 2 2 1 4 5 8 10 9 9 9 8 8 8 7 6 5 6 6 8 7 6 4 4 3 3 3 3 2 2 1 1
6 7 8 8 9 8 10 10 10 9 7 7 8 2 2 2 3 4 7 9 9 8 8 8 8 7 6 6 5 4 5 6 7 7 6 5 3 3 3 3 2 2 1 1
7 9 10 10 7 6 9 10 10 10 8 8 7 3 2 1 4 5 6 7 8 9 8 8 7 6 5 5 5 5 4 4 5 5 5 5 3 3 3 3 2 1 1 1
7 10 12 13 12 10 9 9 11 12 11 9 6 4 2 2 2 5 6 7 8 8 8 7 7 6 6 5 4 5 4 4 4 5 4 4 4 3 3 3 2 2 0 1
6 8 11 13 12 11 11 12 13 13 11 9 6 4 2 3 3 5 6 6 7 7 7 7 6 7 6 5 4 3 4 4 5 5 4 4 3 3 2 2 2 2 1 1
6 7 10 11 12 12 13 11 10 9 9 8 6 2 2 2 4 3 4 5 5 6 7 6 6 6 6 6 5 5 4 4 5 5 4 4 4 3 2 2 2 1 1 1
6 7 8 9 9 12 8 6 6 6 4 5 2 1 1 4 4 4 4 5 5 5 7 7 6 6 6 6 6 5 4 5 5 5 4 4 3 3 3 2 2 1 1 1
6 7 8 8 9 10 9 6 5 4 4 3 2 1 3 3 4 4 6 6 5 4 4 6 6 6 5 6 5 5 4 5 5 5 4 4 4 4 3 3 2 2 1 1
8 6 7 7 9 9 5 4 5 4 3 1 1 2 2 1 1 3 5 6 5 5 5 6 6 6 5 5 5 4 4 4 4 4 4 4 3 3 3 2 2 2 1 1
7 7 8 9 9 6 5 3 4 4 1 1 1 1 2 3 3 3 5 5 5 5 6 6 6 5 4 4 5 4 3 3 4 4 4 4 3 3 3 3 2 2 2 1
8 7 8 8 8 5 5 3 2 3 2 1 2 2 3 4 4 5 6 5 4 5 5 6 5 5 4 4 4 4 3 3 3 4 4 3 3 3 3 3 2 2 2 2
6 5 4 3 3 1 2 4 4 2 1 2 2 3 3 2 2 4 5 4 3 4 4 4 5 5 4 3 4 4 3 3 3 3 3 3 3 2 3 3 3 3 3 2
5 5 3 3 2 1 2 1 1 1 2 2 2 2 1 2 2 3 3 4 4 3 3 4 5 4 3 3 3 3 3 3 3 4 3 3 3 3 2 1 1 1 0 1
6 6 3 3 4 3 3 3 3 2 3 3 3 2 2 2 2 2 3 3 3 3 3 3 3 4 4 4 4 3 3 3 4 4 4 4 3 3 2 2 1 1 1 1
6 5 4 4 3 3 4 4 3 2 2 2 3 2 2 2 1 0 2 3 3 3 3 3 3 4 4 4 4 4 4 4 3 3 3 3 3 2 3 3 3 2 2 3
Wind_Direction
235 238 239 236 232 252 263 269 268 245 223 247 251 183 188 194 193 171 158 156 150 142 136 129 126 122 116 111 111 110 108 107 108 106 106 106 103 105 97 92 81 69 57 53
241 240 245 244 244 250 262 270 274 256 239 248 245 223 209 209 190 171 161 160 158 150 138 133 134 129 125 122 120 116 114 112 111 113 115 125 114 105 98 78 75 59 49 38
244 246 248 256 255 261 265 268 273 277 267 247 245 225 242 231 200 163 160 160 154 146 140 140 139 136 134 130 126 123 122 120 118 111 117 103 92 79 81 87 79 50 44 46
250 255 251 255 255 257 263 267 271 269 271 264 263 246 226 225 204 170 161 155 153 146 144 145 145 145 144 141 135 127 127 122 116 113 115 121 116 108 90 92 91 74 43 46
250 250 251 253 256 265 274 281 276 276 276 279 268 255 225 195 195 176 164 157 153 148 147 147 147 146 146 141 139 135 131 129 126 130 117 110 98 90 88 100 109 104 70 46
260 256 248 252 258 258 264 271 272 267 263 261 265 260 221 200 183 170 161 160 153 150 146 144 141 142 146 145 144 140 137 139 140 138 128 117 105 76 77 75 94 115 90 51
253 255 244 236 248 245 253 260 265 272 264 262 268 256 205 195 167 156 156 156 154 148 143 143 146 148 149 148 147 143 144 144 142 139 134 131 134 115 88 75 73 68 69 63
248 248 243 231 237 246 246 256 263 271 268 272 287 262 200 174 154 139 140 146 145 146 146 148 148 150 153 151 149 144 143 144 144 146 142 133 130 129 94 58 45 63 59 62
253 256 249 237 229 238 246 255 266 268 277 278 249 233 190 158 148 146 140 136 143 151 151 149 149 150 152 152 153 151 146 145 151 155 150 141 136 121 95 67 68 62 62 72
252 270 268 252 233 229 240 253 259 259 277 273 271 246 196 154 148 136 130 135 141 149 151 142 140 137 135 145 149 144 145 149 154 154 160 147 139 125 104 78 71 63 54 41
246 253 262 249 237 246 235 240 250 260 255 268 272 273 115 136 146 157 145 139 143 149 141 139 136 133 130 135 146 146 148 150 150 149 145 133 145 143 136 119 93 84 69 57
247 254 259 259 260 261 257 244 247 251 259 271 274 258 99 131 173 169 140 133 135 134 131 129 130 134 134 135 140 145 151 156 157 155 151 156 153 151 149 127 116 115 116 97
302 269 264 258 253 244 254 254 260 258 257 258 267 253 161 223 133 129 125 126 126 128 126 128 130 134 141 143 139 151 159 158 158 159 161 159 159 151 139 132 132 125 119 109
291 267 270 267 261 262 260 269 275 273 262 267 278 272 230 192 136 129 126 132 132 130 127 127 129 133 137 143 147 151 152 150 152 154 157 153 161 152 146 140 135 129 132 118
266 271 274 273 271 265 263 260 263 262 261 265 273 270 250 213 183 143 138 137 136 135 132 130 136 139 141 140 139 147 151 148 144 146 150 154 152 147 145 143 135 124 108 85
266 279 277 272 269 272 270 260 256 259 261 254 238 236 205 215 151 133 140 145 150 142 132 132 140 140 144 142 138 147 152 149 145 152 154 145 146 148 145 139 128 132 117 78
268 269 274 268 269 269 260 265 260 261 270 264 253 226 181 128 99 119 121 133 135 132 132 144 148 148 144 145 146 154 161 146 147 150 146 149 156 150 147 157 141 146 126 101
257 272 271 267 265 259 270 274 271 261 283 301 241 183 96 100 113 114 114 118 124 138 147 151 151 148 146 149 148 157 160 151 148 150 150 150 155 153 152 151 152 148 138 133
260 258 263 269 264 261 265 268 266 246 253 276 266 144 77 80 111 107 105 101 106 128 135 137 138 133 134 142 145 155 167 151 150 154 155 157 159 157 162 166 163 156 167 167
235 237 255 260 263 265 263 283 297 262 211 338 52 79 64 90 152 104 100 104 112 105 108 116 121 122 122 130 139 146 145 146 154 155 153 149 155 164 164 158 157 158 181 198
224 226 247 259 261 266 314 331 305 252 198 25 107 111 56 46 60 81 89 89 98 103 109 111 112 116 120 132 137 141 140 143 143 142 140 144 157 173 159 147 153 166 197 199
234 229 237 248 255 261 349 357 60 50 29 63 47 72 84 83 90 88 94 94 102 108 110 115 108 109 119 130 136 138 135 130 134 136 139 149 166 192 151 150 169 187 203 210
252 256 264 266 261 329 15 50 63 68 45 49 39 56 63 79 88 97 112 117 109 106 114 120 116 110 111 117 126 138 130 127 132 134 138 147 156 157 148 173 186 200 203 219
261 277 279 307 293 332 334 80 113 48 55 42 46 49 36 56 66 79 105 110 108 102 115 120 122 122 120 120 120 124 128 137 143 142 146 157 164 170 158 182 190 188 167 275
301 298 288 271 288 314 333 359 1 18 35 39 40 47 41 53 54 66 106 113 115 123 116 122 129 130 132 127 128 138 136 143 154 161 168 178 173 161 146 136 89 115 105 140
288 293 283 281 298 293 316 324 357 12 19 16 358 26 25 20 22 16 121 127 136 142 136 140 141 140 144 147 149 152 152 154 163 178 186 193 176 171 170 166 154 102 138 154